Regional Weather Roundup
Issued by NWS

Home | Current Version | Previous Version | Graphics & Text | Print | Product List | Glossary On
Versions: 1 2 3 4 5 6 7 8 9 10 11 12 13 14 15 16 17 18 19 20 21 22 23 24 25 26 27 28 29 30 31 32 33 34 35 36 37 38 39 40 41 42 43 44 45 46 47 48 49 50
416
ASUS43 KLSX 231757
RWRMO

WEATHER SUMMARY FOR MISSOURI
NATIONAL WEATHER SERVICE SPRINGFIELD MO
100 PM CDT MON OCT 23 2017

NOTE: "FAIR" INDICATES FEW OR NO CLOUDS BELOW 12,000 FEET WITH NO
       SIGNIFICANT WEATHER AND/OR OBSTRUCTIONS TO VISIBILITY.
       CURRENT SKY AND/OR WEATHER CONDITIONS ARE NOT AVAILABLE FOR
       CHILLICOTHE AND FARMINGTON.

MOZ001>031-035>038-043-044-053-054-231900-
...NORTHERN AND WESTERN MISSOURI...

CITY           SKY/WX    TMP DP  RH WIND       PRES   REMARKS
KANSAS CTY INT LGT RAIN  61  42  49 NW15G25   29.98R
6HR MIN TEMP:  44; 6HR MAX TEMP:  66; 6HR PCP: TRACE;

LEE`S SUMMIT   MOSUNNY   65  44  46 NW18G31   29.97R
6HR MIN TEMP:  47; 6HR MAX TEMP:  65;

ST JOSEPH      LGT RAIN  65  44  46 N14G23    29.98R
6HR MIN TEMP:  38; 6HR MAX TEMP:  65; 6HR PCP: TRACE;

CHILLICOTHE      N/A     67  44  43 NW10G21   29.91S
6HR MIN TEMP:  41; 6HR MAX TEMP:  67;


$$
MOZ066>068-077>081-088>096-101>105-231900-
...SOUTHWEST MISSOURI...

CITY           SKY/WX    TMP DP  RH WIND       PRES   REMARKS
SPRINGFIELD    SUNNY     67  44  43 W20G29    29.92F
6HR MIN TEMP:  42; 6HR MAX TEMP:  68;

JOPLIN         MOSUNNY   63  45  51 W20G28    30.00R
6HR MIN TEMP:  45; 6HR MAX TEMP:  65;

BRANSON        PTSUNNY   68  39  34 W13G23    29.97F

$$
MOZ032>034-039>042-045>050-055>058-069>072-231900-
...CENTRAL MISSOURI...

CITY           SKY/WX    TMP DP  RH WIND       PRES   REMARKS
COLUMBIA       NOT AVBL
ROLLA          SUNNY     68  43  40 SW15      29.87F
6HR MIN TEMP:  48; 6HR MAX TEMP:  68;

SEDALIA        MOSUNNY   63  46  54 NW17      29.91S
6HR MIN TEMP:  43; 6HR MAX TEMP:  64;

WARRENSBURG    MOSUNNY   63  43  48 N13G23    29.93S

$$
MOZ051-052-059>065-231900-
...EAST CENTRAL MISSOURI...

CITY           SKY/WX    TMP DP  RH WIND       PRES   REMARKS
ST LOUIS INTL  PTSUNNY   65  45  48 W3        29.85F
6HR MIN TEMP:  52; 6HR MAX TEMP:  65; 6HR PCP: TRACE;


$$
MOZ072>076-082>087-097>100-106>115-231900-
...SOUTH CENTRAL AND SOUTHEAST MISSOURI...

CITY           SKY/WX    TMP DP  RH WIND       PRES   REMARKS
CAPE GIRARDEAU PTSUNNY   61  42  49 NW7       29.90F
6HR MIN TEMP:  52; 6HR MAX TEMP:  61;

POPLAR BLUFF   MOSUNNY   67  43  41 W6        29.91F
6HR MIN TEMP:  51; 6HR MAX TEMP:  67;

WEST PLAINS    SUNNY     70  41  34 W12       29.93F
6HR MIN TEMP:  50; 6HR MAX TEMP:  70;


$$



USA.gov is the U.S. government's official web portal to all federal, state and local government web resources and services.